Location: Newark
(22.3060°N, 114.2134°E)
Time: 11:35:13
(UTC+00:00)

deb Explorer IX - All Passes

Search period start: 02 August 2021 00:00
Search period end: 12 August 2021 00:00
Orbit: 543 x 1093 km, 38.8° (Epoch: 01 August)

Date Brightness Start Highest point End Pass type
(mag) Time Alt. Az. Time Alt. Az. Time Alt. Az.
02 Aug - 03:10:21 10° SW 03:14:32 88° SSE 03:19:16 10° ENE daylight
02 Aug - 04:58:14 10° WNW 05:01:49 22° NNW 05:05:48 10° NNE daylight
02 Aug - 06:47:30 10° NNW 06:50:12 14° N 06:53:07 10° NNE daylight
02 Aug - 08:34:19 10° NNW 08:38:48 22° NNE 08:43:43 10° ENE daylight
02 Aug - 10:20:22 10° NW 10:26:40 60° NNE 10:33:41 10° ESE daylight
02 Aug - 12:07:41 10° WNW 12:13:54 38° SW 12:20:29 10° SSE visible
03 Aug - 02:46:24 10° SW 02:50:32 87° SE 02:55:06 10° ENE daylight
03 Aug - 04:34:20 10° WNW 04:37:45 21° NNW 04:41:32 10° NNE daylight
03 Aug - 06:23:41 10° NNW 06:26:06 13° N 06:28:40 10° NNE daylight
03 Aug - 08:10:21 10° NNW 08:14:37 21° NNE 08:19:20 10° ENE daylight
03 Aug - 09:56:18 10° NW 10:02:26 59° NNE 10:09:20 10° ESE daylight
03 Aug - 11:43:33 10° WNW 11:49:39 38° SW 11:56:11 10° SSE visible
04 Aug - 02:22:25 10° SW 02:26:31 87° SE 02:30:57 10° ENE daylight
04 Aug - 04:10:25 10° WNW 04:13:42 20° NNW 04:17:16 10° NNE daylight
04 Aug - 05:59:53 10° NNW 06:01:59 12° N 06:04:12 10° NNE daylight
04 Aug - 07:46:23 10° NNW 07:50:27 20° NNE 07:54:56 10° ENE daylight
04 Aug - 09:32:15 10° NW 09:38:12 58° NNE 09:44:59 10° ESE daylight
04 Aug - 11:19:25 10° WNW 11:25:23 37° SW 11:31:51 10° SSE visible
05 Aug - 01:58:26 10° SW 02:02:30 87° SE 02:06:49 10° ENE daylight
05 Aug - 03:46:29 10° WNW 03:49:38 19° NNW 03:53:02 10° NNE daylight
05 Aug - 05:36:08 10° NNW 05:37:53 12° N 05:39:42 10° NNE daylight
05 Aug - 07:22:27 10° NNW 07:26:17 19° NNE 07:30:32 10° ENE daylight
05 Aug - 09:08:12 10° NW 09:13:59 57° NNE 09:20:37 10° ESE daylight
05 Aug - 10:55:18 10° WNW 11:01:07 37° SW 11:07:31 10° SSE daylight
06 Aug - 01:34:25 10° SW 01:38:28 87° SE 01:42:42 10° ENE daylight
06 Aug - 03:22:32 10° WNW 03:25:34 19° NNW 03:28:48 10° NNE daylight
06 Aug - 05:12:26 10° NNW 05:13:46 11° N 05:15:09 10° NNE daylight
06 Aug - 06:58:30 10° NNW 07:02:08 18° NNE 07:06:07 10° ENE daylight
06 Aug - 08:44:10 10° NW 08:49:45 56° NNE 08:56:15 10° ESE daylight
06 Aug - 10:31:13 10° WNW 10:36:52 36° SW 10:43:09 10° SSE daylight
07 Aug - 01:10:22 10° SW 01:14:27 87° SE 01:18:36 10° ENE daylight
07 Aug - 02:58:34 10° WNW 03:01:30 18° NNW 03:04:35 10° NNE daylight
07 Aug - 04:48:52 10° N 04:49:39 10° N 04:50:28 10° N daylight
07 Aug - 06:34:35 10° NNW 06:37:59 18° NNE 06:41:43 10° ENE daylight
07 Aug - 08:20:08 10° NW 08:25:32 55° NNE 08:31:52 10° ESE daylight
07 Aug - 10:07:07 10° WNW 10:12:37 36° SW 10:18:46 10° SSE daylight
08 Aug - 00:46:17 10° SW 00:50:24 87° SE 00:54:30 10° ENE daylight
08 Aug - 02:34:35 10° WNW 02:37:26 18° NNW 02:40:24 10° NNE daylight
08 Aug - 06:10:40 10° NNW 06:13:50 17° NNE 06:17:18 10° ENE daylight
08 Aug - 07:56:06 10° NW 08:01:20 54° NNE 08:07:28 10° ESE daylight
08 Aug - 09:43:03 10° WNW 09:48:22 35° SW 09:54:23 10° SSE daylight
09 Aug - 00:22:11 10° SW 00:26:21 87° SE 00:30:26 10° ENE daylight
09 Aug - 02:10:33 10° WNW 02:13:21 18° NNW 02:16:14 10° NNE daylight
09 Aug - 05:46:45 10° NNW 05:49:41 16° NNE 05:52:53 10° ENE daylight
09 Aug - 07:32:05 10° NW 07:37:09 53° NNE 07:43:05 10° ESE daylight
09 Aug - 09:19:00 10° WNW 09:24:07 34° SW 09:29:59 10° SSE daylight
09 Aug - 22:15:08 10° SSE 22:15:52 10° SE 22:16:36 10° SE daylight
09 Aug - 23:58:03 10° SW 00:02:17 87° SSE 00:06:22 10° ENE daylight
10 Aug - 01:46:30 10° WNW 01:49:16 17° NNW 01:52:05 10° NNE daylight
10 Aug - 05:22:49 10° NNW 05:25:33 15° NNE 05:28:28 10° NE daylight
10 Aug - 07:08:04 10° NW 07:12:57 52° NNE 07:18:42 10° ESE daylight
10 Aug - 08:54:57 10° WNW 08:59:54 33° SW 09:05:34 10° SSE daylight
10 Aug - 21:50:36 10° SSE 21:51:45 11° SE 21:52:52 10° SE daylight
10 Aug - 23:33:53 10° SW 23:38:14 87° SE 23:42:18 10° ENE daylight
11 Aug - 01:22:25 10° WNW 01:25:10 17° NNW 01:27:57 10° NNE daylight
11 Aug - 04:58:54 10° NNW 05:01:24 14° NNE 05:04:05 10° NE daylight
11 Aug - 06:44:03 10° NW 06:48:47 51° NNE 06:54:19 10° ESE daylight
11 Aug - 08:30:53 10° W 08:35:40 33° SW 08:41:09 10° SSE daylight
11 Aug - 21:26:07 10° SSE 21:27:37 11° SE 21:29:03 10° ESE visible
11 Aug - 23:09:41 10° SW 23:14:09 87° SE 23:18:15 10° ENE daylight
